Погода в Монастырщине

Россия / Воронежская область     49°49′21″N   40°54′31″E
темп.,
°C
ветер,
м/с
пор.,
м/с
влажн.,
%
обл.,
%
осадки,
мм/ч
давл.,
гПа
погр.,
м
14 апреля, ср
ср1400:00+12св2272100 0.0 102219
03:00+10в3753100 0.0 1021111
06:00+9вюв4106435 0.0 1020200
09:00+15вюв593977 0.0 1019499
12:00+19вюв682879 0.0 10171383
15:00+20вюв682663 0.0 10161702
18:00+17ююв4104497 0.0 1016489
21:00+14юв3753100 0.0 1016159
15 апреля, чт
чт1500:00+12в226780 0.0 101513
03:00+11ююв2273100 0.0 101526
06:00+11ююз3479100 0.0 101697
09:00+14з336682 0.0 1016550
12:00+17зюз334895 0.0 10151539
15:00+18юз234066 0.0 10151731
18:00+17ююз234247 0.0 1015129
21:00+13ююз335329 0.0 101525
16 апреля, пт
пт1600:00+11зюз4873100 0.0 1016203
03:00+10зюз238146 0.0 101656
06:00+9юз228393 0.0 101755
09:00+14ююз346299 0.0 1017715
12:00+17ююз56412 0.0 10171826
15:00+18ююз673319 0.0 10162565
18:00+16юз5741100 0.0 1016414
21:00+12юз3853100 0.0 1018167
17 апреля, сб
сб1700:00+11зюз3668100 0.3 1019376
03:00+9зсз1289100 4.6 1019175
06:00+8юз228597 0.3 101962
09:00+11з3366100 0.3 1019704
12:00+14зюз444391 0.3 10192235
15:00+15зсз443698 0.3 10192240
18:00+13з344576 0.0 1019693
21:00+11ссз2556100 0.0 1020148
18 апреля, вс
вс1800:00+9с237340 0.4 102095
03:00+6с249028 1.6 102073
06:00+6ссз22905 0.0 102127
09:00+11с33687 0.0 1020573
12:00+14ссв4449100 0.7 10201737
15:00+13с5547100 1.2 10201568
18:00+11с6768100 0.2 1021820
21:00+8ссв488378 0.2 1022427